sat.trackr.live / text

‹ back to catalog

STARLINK-31589

NORAD 59654 · 2024-084A

PAYLOAD ACTIVE UNKNOWN

§ Identity

Operator
Country
US
Launch date
2024-05-06
Launch site
AFETR
Launch vehicle
Mass (kg)
RCS (m²)

Purposes: comms

External: N2YO · Heavens-Above · Gunter

§ Orbital elements

Epoch: 2026-09-21T15:26:13.146144Z

Period
94.27 min
Inclination
43.0045°
Eccentricity
0.0001382
Mean motion
15.27578535 rev/d
Perigee alt
482.1 km
Apogee alt
484.0 km
Semi-major
6,861.2 km
B*
3.5145e-5
RAAN
14.9893°
Arg perigee
257.9636°
Mean anomaly
102.1061°
Rev number
13,436

§ Raw data

STARLINK-315891 59654U 24084A   26264.64320771  .00000705  00000+0  35145-4 0  99902 59654  43.0045  14.9893 0001382 257.9636 102.1061 15.27578535134369

JSON: /api/v1/satellites/59654 · /tle

For live sub-satellite position, see the globe view (requires WebGL).

§ Visibility from observer

Set your observer location to see the next 7 days of passes ≥ 10°. The values pass through the URL so the page stays shareable.

No JS? Fill the form by hand. The geolocation button needs JavaScript.